Location: Newark
(9.1167°S, 159.8667°E)
Time: 14:20:10
(UTC+00:00)

Hubble Space Telescope - Visible Passes

Search period start: 17 September 2019 00:00
Search period end: 27 September 2019 00:00
Orbit: 536 x 540 km, 28.5° (Epoch: 16 September)

Date Brightness Start Highest point End Pass type
(mag) Time Alt. Az. Time Alt. Az. Time Alt. Az.
17 Sep 3.5 09:15:25 10° SSW 09:15:57 13° SSW 09:15:57 13° SSW visible
18 Sep 2.9 09:04:37 10° SW 09:06:14 20° SSW 09:06:14 20° SSW visible
19 Sep 2.0 08:53:54 10° SW 08:56:34 33° SSW 08:56:34 33° SSW visible
20 Sep 1.0 08:43:15 10° SW 08:46:59 60° S 08:46:59 60° S visible
21 Sep 0.6 08:32:39 10° WSW 08:36:50 89° NNW 08:37:27 63° ENE visible
22 Sep 1.0 08:22:09 10° WSW 08:26:16 62° NNW 08:27:58 32° NE visible
23 Sep 1.7 08:11:45 10° WSW 08:15:42 43° NNW 08:18:31 17° NE visible
24 Sep 2.3 08:01:28 10° W 08:05:07 30° NNW 08:08:47 10° NNE visible
25 Sep 2.9 07:51:19 10° W 07:54:34 22° NNW 07:57:48 10° NNE visible
26 Sep 3.3 07:41:25 10° WNW 07:44:00 16° NNW 07:46:35 10° N visible
